Wind_Speed
39 40 41 41 41 41 41 41 42 42 42 42 43 43 44 44 44 44 44 45 44 45 45 46 46 47 48 48 48 47 47 47 46 46 46 46 45 44
39 39 39 40 40 41 42 42 42 42 42 42 43 43 43 43 43 42 42 42 43 43 43 44 46 47 47 47 47 48 48 48 47 46 45 45 44 44
40 40 40 40 40 41 41 41 42 42 42 42 42 41 41 41 41 40 40 40 40 41 42 43 45 45 45 45 45 45 45 45 44 44 44 44 44 43
41 41 41 42 42 42 42 42 42 42 42 41 41 41 41 41 40 40 39 39 39 40 40 40 41 42 42 42 42 42 43 42 42 42 43 43 43 43
42 42 42 43 43 43 43 42 42 41 41 41 41 42 42 42 41 41 40 39 40 40 40 40 39 39 39 39 38 38 39 40 41 42 42 41 41 41
42 43 43 43 43 43 42 42 42 42 41 41 41 41 41 41 41 41 40 40 40 40 39 39 39 38 37 37 36 36 37 37 39 40 40 40 39 39
43 43 43 42 41 41 41 41 42 41 41 40 40 40 40 40 41 40 40 39 40 39 38 38 37 36 35 36 35 36 36 36 37 38 38 38 38 38
42 41 41 40 40 40 40 40 39 39 39 39 39 39 39 39 39 39 39 38 38 37 37 36 36 35 35 35 35 35 35 35 35 34 35 36 37 37
40 39 39 39 39 39 39 39 38 38 38 38 38 38 37 37 37 37 37 37 36 35 35 35 35 34 34 35 34 34 34 34 34 34 33 33 34 35
38 38 38 38 38 38 38 38 38 38 37 37 37 36 36 36 36 36 35 35 35 34 34 33 33 33 33 33 32 32 32 32 33 32 32 32 32 33
38 37 37 37 37 37 37 37 37 37 37 36 36 35 34 34 35 34 33 33 33 32 33 32 32 32 32 32 32 32 31 31 30 31 31 32 32 32
37 37 36 37 37 37 37 36 35 35 36 35 35 35 34 34 33 33 33 32 32 32 31 31 31 30 30 30 30 30 30 30 30 30 30 31 31 31
35 35 36 36 36 36 36 35 35 34 34 34 34 34 33 33 32 32 31 31 31 30 29 29 29 29 29 28 27 28 29 30 30 30 29 29 30 30
35 35 35 35 35 35 35 35 35 34 34 34 33 33 32 31 31 31 30 30 30 29 28 28 28 28 27 26 25 26 27 28 28 29 29 29 29 29
36 35 35 35 35 34 34 34 34 34 33 33 32 31 31 31 31 30 30 29 29 29 28 28 27 26 26 25 24 24 25 26 26 27 28 29 29 29
35 34 34 35 35 34 33 33 33 32 32 31 31 30 31 30 30 30 29 29 29 28 28 27 26 26 25 25 24 24 24 25 25 26 26 27 27 28
33 32 32 32 32 31 30 30 31 31 31 31 30 30 29 29 29 29 29 28 28 27 27 27 26 26 26 25 25 24 24 24 24 24 24 24 25 26
30 29 29 29 28 28 28 28 28 28 28 29 29 29 29 28 28 28 28 27 27 26 26 27 27 26 26 26 25 24 24 24 24 24 24 23 23 23
28 28 28 28 27 26 26 26 26 26 26 27 27 27 27 27 28 28 28 27 27 26 26 26 26 26 25 24 24 24 23 22 22 23 22 23 22 22
27 27 27 27 26 25 25 25 25 24 25 25 25 25 26 26 26 26 26 26 26 25 25 25 25 25 25 24 23 22 22 22 22 22 22 22 21 20
26 26 26 25 25 25 24 24 24 24 24 24 24 24 24 24 24 24 24 24 24 24 23 23 23 23 24 24 23 22 22 22 21 21 20 19 18 17
24 24 24 24 24 24 23 23 23 23 23 23 22 22 22 22 22 22 22 22 22 22 22 21 21 22 22 23 23 22 21 21 20 20 18 17 17 16
23 23 23 23 23 22 22 21 22 22 21 21 21 21 21 20 20 21 20 20 19 20 20 20 20 20 20 20 21 20 20 19 18 17 16 16 16 16
Wind_Direction
276 276 277 278 279 280 281 282 283 283 282 282 281 281 281 281 281 281 280 279 278 277 276 274 274 273 272 272 273 272 271 271 270 271 271 271 271 271
277 277 278 278 280 280 281 283 284 284 283 282 282 282 282 281 281 281 281 281 280 278 277 277 276 275 274 274 273 272 272 270 270 270 270 271 271 271
278 278 278 279 280 281 282 283 284 284 283 282 282 282 282 282 282 281 282 282 282 281 279 278 278 277 276 275 274 272 272 271 270 270 269 269 269 270
277 278 279 279 279 280 280 282 283 283 283 282 281 281 281 282 281 282 283 282 281 282 282 281 280 279 278 277 276 272 270 269 270 270 270 270 270 269
276 277 279 280 280 280 280 281 282 282 282 282 281 282 282 281 280 282 283 282 282 283 283 282 282 281 279 278 277 274 272 270 270 270 270 270 270 269
277 278 279 279 280 280 280 280 281 281 281 281 281 281 281 281 280 281 281 282 283 284 284 283 283 281 280 279 278 277 275 273 272 271 270 269 269 269
278 279 279 279 280 280 281 281 281 281 281 281 281 281 280 280 280 281 281 281 282 283 284 283 283 282 282 280 279 278 276 275 274 272 271 270 269 269
278 278 279 280 280 281 282 282 282 281 281 282 282 281 281 280 280 281 280 280 281 282 283 282 283 283 282 281 280 279 277 275 275 274 273 271 270 268
277 277 278 279 280 281 281 281 281 281 282 282 282 281 280 281 281 281 281 281 281 282 282 282 283 283 282 281 281 280 278 275 275 275 274 272 271 269
277 278 279 280 281 282 281 281 281 282 282 282 282 281 280 281 281 281 281 281 281 282 282 282 281 281 282 282 281 281 279 277 275 274 273 272 272 273
279 280 280 280 281 281 281 281 282 282 283 283 282 281 280 280 280 281 281 281 281 281 283 283 281 280 281 281 281 282 281 278 276 275 274 274 274 273
279 280 281 281 281 281 281 282 282 282 281 281 281 280 279 279 280 280 280 281 281 281 282 282 282 280 281 280 279 281 281 280 277 276 276 275 275 274
278 280 281 282 282 281 281 281 281 281 279 279 279 279 279 279 280 281 281 282 282 282 282 282 282 281 282 281 280 281 282 281 279 278 277 277 277 276
278 279 280 280 281 281 280 280 281 281 280 280 279 279 279 279 279 280 281 283 283 283 283 283 283 282 281 281 282 282 282 281 280 280 279 278 278 278
277 278 279 280 280 281 280 280 281 281 280 279 279 279 279 279 279 279 280 282 282 282 282 283 283 283 282 281 281 281 280 280 281 281 281 279 278 278
276 278 280 281 281 281 280 280 280 280 279 278 278 278 278 278 279 280 280 281 281 281 281 280 280 282 281 281 282 282 282 282 281 281 281 281 280 278
277 278 280 282 282 282 282 281 280 279 279 278 278 279 279 278 279 280 280 280 280 279 280 279 279 279 280 281 282 283 283 283 284 284 284 284 283 281
277 278 280 282 282 282 283 283 283 281 280 280 280 279 278 278 278 279 279 279 280 279 280 278 277 277 278 281 282 283 282 282 283 285 284 284 284 282
277 278 280 281 281 282 283 284 284 284 284 282 280 278 278 278 279 279 278 279 280 280 279 278 276 275 275 278 281 282 282 281 281 283 285 286 285 282
276 277 278 280 281 283 283 284 284 285 285 284 281 279 278 279 279 280 279 280 281 281 279 278 276 275 276 278 279 281 282 282 282 285 287 286 283 280
275 276 277 279 280 282 282 283 284 285 286 286 284 282 281 281 281 281 281 279 279 279 279 279 278 276 276 276 278 280 281 282 285 287 286 283 280 279
275 275 277 279 279 280 281 283 285 286 286 286 286 284 283 284 284 283 284 281 280 278 278 279 279 278 278 277 278 279 279 280 283 284 281 280 282 282
275 276 277 277 277 278 280 283 285 285 285 285 285 284 284 284 284 284 284 282 281 280 279 279 279 279 280 279 279 278 278 279 281 279 277 280 284 284
Height
5660 5659 5658 5656 5655 5654 5652 5651 5650 5649 5649 5647 5645 5643 5641 5640 5638 5636 5635 5633 5632 5631 5630 5630 5630 5629 5629 5629 5628 5628 5628 5628 5628 5627 5627 5628 5628 5629
5649 5649 5647 5646 5645 5643 5642 5640 5639 5637 5637 5636 5634 5632 5630 5628 5626 5624 5623 5621 5620 5619 5618 5617 5617 5616 5616 5616 5615 5615 5614 5614 5614 5614 5614 5615 5615 5616
5639 5638 5637 5636 5634 5633 5631 5630 5628 5626 5625 5625 5622 5620 5618 5616 5615 5613 5612 5610 5609 5607 5606 5606 5604 5604 5603 5602 5602 5601 5601 5601 5601 5601 5602 5602 5603 5604
5628 5627 5626 5625 5624 5622 5621 5619 5617 5615 5614 5613 5611 5609 5607 5605 5604 5603 5601 5600 5598 5597 5595 5594 5593 5592 5591 5589 5589 5588 5588 5588 5588 5589 5589 5590 5591 5591
5617 5617 5615 5614 5613 5611 5609 5608 5606 5604 5602 5601 5600 5598 5596 5595 5594 5592 5591 5589 5588 5586 5585 5583 5582 5580 5578 5578 5577 5576 5576 5576 5577 5577 5577 5577 5577 5578
5606 5605 5604 5603 5601 5599 5598 5596 5594 5593 5591 5590 5588 5587 5585 5583 5583 5582 5580 5579 5577 5576 5574 5573 5571 5569 5568 5567 5566 5566 5565 5564 5564 5564 5564 5565 5565 5566
5595 5594 5592 5591 5589 5588 5586 5584 5583 5581 5580 5578 5577 5575 5574 5573 5572 5571 5569 5568 5567 5565 5564 5562 5561 5559 5558 5557 5555 5555 5554 5553 5553 5553 5553 5553 5554 5554
5584 5583 5581 5580 5579 5577 5575 5573 5571 5570 5568 5567 5566 5564 5563 5562 5561 5559 5558 5558 5557 5556 5554 5552 5550 5549 5548 5547 5546 5544 5543 5543 5542 5542 5542 5542 5542 5543
5573 5572 5571 5569 5568 5566 5564 5562 5561 5559 5558 5556 5555 5554 5553 5552 5550 5549 5548 5546 5546 5545 5543 5542 5540 5539 5538 5536 5536 5535 5534 5533 5533 5532 5532 5532 5532 5532
5562 5561 5560 5559 5557 5555 5554 5552 5550 5549 5547 5546 5545 5544 5542 5541 5540 5539 5538 5536 5535 5534 5532 5532 5531 5530 5528 5527 5526 5525 5524 5524 5523 5522 5522 5522 5522 5522
5551 5550 5549 5548 5546 5544 5543 5542 5540 5538 5536 5535 5534 5533 5532 5531 5530 5529 5528 5527 5526 5525 5523 5522 5522 5521 5520 5518 5517 5515 5515 5514 5513 5513 5512 5512 5512 5512
5541 5540 5538 5537 5535 5533 5532 5531 5530 5528 5527 5525 5524 5523 5522 5521 5520 5519 5518 5517 5516 5516 5515 5513 5512 5511 5511 5510 5508 5507 5505 5504 5504 5503 5503 5503 5502 5502
5530 5529 5528 5526 5524 5523 5521 5520 5519 5518 5516 5515 5514 5513 5512 5511 5510 5509 5508 5508 5507 5507 5506 5504 5503 5502 5501 5501 5500 5498 5497 5496 5495 5494 5494 5493 5493 5493
5520 5519 5517 5516 5514 5512 5511 5510 5508 5507 5506 5505 5504 5504 5503 5502 5502 5500 5499 5498 5498 5497 5496 5495 5494 5494 5493 5492 5492 5491 5489 5487 5486 5486 5485 5484 5484 5483
5509 5508 5506 5505 5504 5502 5501 5499 5498 5497 5496 5495 5494 5494 5494 5493 5492 5491 5490 5489 5489 5488 5487 5486 5486 5485 5484 5484 5483 5482 5481 5480 5478 5478 5477 5476 5476 5476
5498 5497 5496 5495 5493 5492 5491 5489 5488 5487 5486 5485 5485 5485 5484 5483 5483 5482 5482 5481 5480 5480 5479 5478 5477 5476 5476 5475 5475 5474 5473 5472 5471 5470 5469 5468 5467 5467
5488 5488 5486 5485 5483 5482 5480 5479 5478 5477 5476 5476 5476 5475 5475 5475 5474 5474 5473 5472 5472 5472 5471 5470 5469 5468 5468 5467 5467 5466 5465 5464 5463 5462 5461 5461 5459 5458
5479 5478 5477 5476 5474 5473 5472 5471 5469 5468 5467 5467 5467 5466 5466 5466 5466 5465 5465 5464 5464 5463 5463 5462 5461 5460 5460 5459 5459 5458 5458 5457 5456 5455 5454 5453 5453 5451
5471 5470 5469 5468 5466 5465 5464 5463 5462 5460 5459 5459 5458 5458 5457 5457 5457 5457 5456 5456 5455 5455 5454 5454 5453 5452 5452 5453 5452 5451 5450 5449 5449 5448 5447 5446 5445 5444
5462 5462 5461 5460 5459 5458 5457 5456 5454 5453 5452 5451 5450 5450 5449 5449 5448 5448 5448 5447 5447 5446 5446 5445 5445 5445 5445 5445 5445 5444 5443 5442 5441 5441 5440 5439 5438 5437
5455 5454 5453 5452 5451 5451 5450 5449 5448 5447 5445 5444 5443 5442 5442 5441 5441 5440 5440 5440 5439 5439 5438 5438 5438 5437 5437 5437 5437 5437 5436 5435 5434 5433 5432 5432 5432 5432
5447 5446 5446 5445 5444 5443 5443 5442 5441 5440 5439 5438 5437 5436 5435 5434 5434 5433 5433 5432 5432 5431 5431 5431 5430 5430 5429 5429 5429 5429 5429 5428 5427 5425 5425 5426 5425 5426
5439 5439 5439 5438 5437 5437 5436 5435 5434 5433 5432 5431 5430 5430 5429 5428 5428 5427 5427 5426 5425 5425 5425 5424 5424 5423 5422 5422 5422 5422 5422 5421 5421 5421 5421 5420 5420 5419